Find Starlink 36054

NORAD ID: 66812 Int'l Des: 2025-278 Owner: SPXS Country: US Constellation: starlink operational
LEOCIRCULAR

現在のビュー

3D地球を読み込み中...

About Starlink 36054

Starlink 36054 (NORAD 66812) is a starlink constellation satellite (v2 mini) launched Dec 1, 2025 by SPXS of US. It operates in LEO, CIRCULAR orbit with a mass of 575.00 kg.

Starlink 36054について

説明を読み込み中...

次回通過

Passes for default location (London). Set your location on the main map for personalized predictions.

高度履歴

Loading altitude history...

軌道要素

1 66812U 25278X 26194.85143262 .00005602 00000-0 21291-3 0 9991
2 66812 43.0012 121.8898 0000981 231.7338 128.3425 15.27583440 34503
Epoch: Jul 13, 2026 • Age: 10 hours

現在のステータス

高度 483.0 km
遠地点 / 近地点 N/A
速度 7.63 km/s
衛星直下点 25.49°N, 120.14°W
打ち上げ日 Dec 1, 2025
運用期間 0.6 years
タイプ internet

技術仕様

分類 Payload
質量 575.00 kg
乾燥質量 530.00 kg
総質量 575.00 kg
長さ 0.30 m
直径 4.10 m
スパン 29.00 m
形状 Box + pan
製造者 SPXS
バスタイプ Starlink V2MO
フェーズステータス In Orbit
所有者/国 SPXS/US

Most Searched